Location: Kershaw
(34.5481°N, 80.5823°W)
Time: 07:36:57
(UTC+00:00)

Tiros 1 despin weight - Pass Details

Date: 10 October 2022
Orbit: 590 x 637 km, 48.2° (Epoch: 28 November)

Event Time Altitude Azimuth Distance (km) Brightness Sun altitude
Rises 23:30:11 0° 312° (NW) 2,864 ? -8.2°
Reaches altitude 10° 23:32:38 10° 321° (NW) 1,967 ? -8.7°
Maximum altitude 23:36:48 36° 28° (NNE) 990 ? -9.6°
Enters shadow 23:40:19 14° 91° (E) 1,744 ? -10.3°
Drops below altitude 10° 23:41:02 10° 96° (E) 1,990 - -10.5°
Sets 23:43:31 0° 105° (ESE) 2,903 - -11.0°
